Погода в Эль-Джубайле

Саудовская Аравия     27°00′30″N   49°39′18″E
темп.,
°C
ветер,
м/с
пор.,
м/с
влажн.,
%
обл.,
%
осадки,
мм/ч
давл.,
гПа
погр.,
м
26 февраля, пт
пт2600:00+17сз89630 0.0 10191152
03:00+17сз89600 0.0 10171056
06:00+17сз810550 0.0 10181128
09:00+17сз89510 0.0 10191120
12:00+18сз77490 0.0 1018992
15:00+18ссз89490 0.0 1016761
18:00+18ссз89550 0.0 1017737
21:00+18ссз810560 0.0 1018951
27 февраля, сб
сб2700:00+19сз79540 0.0 10181118
03:00+18зсз89530 0.0 1017770
06:00+18сз79560 0.0 1018807
09:00+18сз78560 0.0 1019941
12:00+19ссз77540 0.0 1018867
15:00+19ссз67530 0.0 1016663
18:00+19с67510 0.0 1017602
21:00+19с46510 0.0 1018481
28 февраля, вс
вс2800:00+19ссз46460 0.0 1017499
03:00+19ссз57460 0.0 1015543
06:00+19с56500 0.0 1016615
09:00+19ссз44500 0.0 1017627
12:00+19ссв33460 0.0 1016432
15:00+19ссв33452 0.0 1014322
18:00+19св665741 0.0 1015239
21:00+20св335953 0.0 1015206
1 марта, пн
пн100:00+19в786238 0.0 1014284
03:00+19всв566727 0.0 1013346
06:00+19вюв4569100 0.0 1014377
09:00+20св2267100 0.0 1016265
12:00+20св3566100 0.0 1014233
15:00+20в696884 0.0 1012368
18:00+20вюв10146940 0.0 1013384
21:00+20всв457220 0.0 101484
2 марта, вт
вт200:00+20с45800 0.0 101596
03:00+20св45800 0.0 1015130
06:00+20с56740 0.0 1016170
09:00+20с67780 0.0 1018346
12:00+20с57750 0.0 1017337
15:00+20ссз68750 0.0 1015372
18:00+20ссз68770 0.0 1016316
21:00+19ссз67750 0.0 1017246